When you browse on this site, cookies collect data to enhance your experience and personalize the content and advertising you see.
Visit our Privacy Policy to learn more. By continuing to use the site, you agree to this use of cookies and data.
  • In Sweden
  • List of Countries
  • For 7 days
  • Water Temperature
  • Satellite Maps
  • Weather Map
  • Weather Widgets
  • user-avatar
    Login

    Hourly Weather Aksuat

    Today, 23 April, Tuesday

    Time Temperature Precipitation Wind Pressure Humidity
    00:00 +6°C° 0 mm 2 mps 747 mmHg 55%
    01:00 +5°C° 0 mm 2 mps 747 mmHg 57%
    02:00 +5°C° 0 mm 2 mps 747 mmHg 61%
    03:00 +4°C° 0 mm 2 mps 747 mmHg 65%
    04:00 +4°C° 0 mm 2 mps 746 mmHg 67%
    05:00 +4°C° 0 mm 3 mps 746 mmHg 64%
    06:00 +7°C° 0 mm 3 mps 746 mmHg 62%
    07:00 +8°C° 0 mm 3 mps 746 mmHg 59%
    08:00 +8°C° 0.2 mm 4 mps 746 mmHg 58%
    09:00 +10°C° 0.2 mm 4 mps 745 mmHg 58%
    10:00 +11°C° 0 mm 4 mps 745 mmHg 56%
    11:00 +11°C° 0.3 mm 4 mps 745 mmHg 52%
    12:00 +12°C° 0.3 mm 4 mps 745 mmHg 48%
    13:00 +13°C° 0.3 mm 4 mps 745 mmHg 44%
    14:00 +14°C° 0 mm 4 mps 744 mmHg 42%
    15:00 +14°C° 0 mm 4 mps 744 mmHg 40%
    16:00 +14°C° 0 mm 4 mps 744 mmHg 38%
    17:00 +13°C° 0 mm 4 mps 744 mmHg 40%
    18:00 +13°C° 0 mm 3 mps 744 mmHg 42%
    19:00 +12°C° 0 mm 3 mps 744 mmHg 43%
    20:00 +11°C° 0 mm 3 mps 744 mmHg 46%
    21:00 +11°C° 0 mm 3 mps 744 mmHg 49%
    22:00 +10°C° 0 mm 3 mps 744 mmHg 51%
    23:00 +10°C° 0 mm 3 mps 743 mmHg 53%

    Tomorrow, 24 April, Wednesday

    Time Temperature Precipitation Wind Pressure Humidity
    00:00 +9°C° 0 mm 3 mps 743 mmHg 54%
    01:00 +9°C° 0 mm 3 mps 743 mmHg 56%
    02:00 +9°C° 0.1 mm 3 mps 743 mmHg 58%
    03:00 +8°C° 0.1 mm 3 mps 743 mmHg 61%
    04:00 +8°C° 0.1 mm 2 mps 743 mmHg 63%
    05:00 +8°C° 0.1 mm 3 mps 743 mmHg 61%
    06:00 +9°C° 0.1 mm 3 mps 743 mmHg 59%
    07:00 +10°C° 0.1 mm 3 mps 743 mmHg 57%
    08:00 +11°C° 0.1 mm 3 mps 743 mmHg 55%
    09:00 +12°C° 0.1 mm 3 mps 743 mmHg 53%
    10:00 +13°C° 0.1 mm 3 mps 743 mmHg 51%
    11:00 +13°C° 0.5 mm 4 mps 743 mmHg 50%
    12:00 +13°C° 0.5 mm 4 mps 742 mmHg 48%
    13:00 +13°C° 0.5 mm 5 mps 742 mmHg 46%
    14:00 +13°C° 0.3 mm 5 mps 742 mmHg 47%
    15:00 +13°C° 0.3 mm 5 mps 742 mmHg 47%
    16:00 +13°C° 0.3 mm 5 mps 741 mmHg 48%
    17:00 +12°C° 0.1 mm 4 mps 741 mmHg 50%
    18:00 +11°C° 0.1 mm 3 mps 741 mmHg 52%
    19:00 +10°C° 0.1 mm 3 mps 741 mmHg 54%
    20:00 +10°C° 0 mm 2 mps 741 mmHg 56%
    21:00 +9°C° 0 mm 2 mps 741 mmHg 59%
    22:00 +8°C° 0 mm 2 mps 741 mmHg 61%
    23:00 +8°C° 0 mm 2 mps 741 mmHg 61%

    Day after tomorrow, 25 April, Thursday

    Time Temperature Precipitation Wind Pressure Humidity
    00:00 +7°C° 0 mm 2 mps 741 mmHg 61%
    01:00 +7°C° 0 mm 2 mps 740 mmHg 61%
    02:00 +7°C° 0 mm 2 mps 740 mmHg 61%
    03:00 +7°C° 0 mm 3 mps 740 mmHg 61%
    04:00 +5°C° 0 mm 3 mps 739 mmHg 62%
    05:00 +7°C° 0.3 mm 3 mps 739 mmHg 61%
    06:00 +6°C° 0.3 mm 4 mps 739 mmHg 61%
    07:00 +6°C° 0.3 mm 4 mps 739 mmHg 61%
    08:00 +6°C° 0.5 mm 4 mps 739 mmHg 65%
    09:00 +6°C° 0.5 mm 5 mps 738 mmHg 70%
    10:00 +6°C° 0.5 mm 5 mps 738 mmHg 74%
    11:00 +7°C° 0.3 mm 6 mps 738 mmHg 69%
    12:00 +8°C° 0.3 mm 6 mps 739 mmHg 64%
    13:00 +9°C° 0.3 mm 6 mps 739 mmHg 58%
    14:00 +8°C° 0.2 mm 7 mps 739 mmHg 58%
    15:00 +7°C° 0.2 mm 8 mps 739 mmHg 58%
    16:00 +7°C° 0.2 mm 8 mps 740 mmHg 58%
    17:00 +6°C° 0 mm 8 mps 740 mmHg 62%
    18:00 +4°C° 0 mm 7 mps 741 mmHg 67%
    19:00 +3°C° 0 mm 7 mps 742 mmHg 71%
    20:00 +2°C° 0 mm 6 mps 742 mmHg 68%
    21:00 +2°C° 0 mm 5 mps 743 mmHg 65%
    22:00 +1°C° 0 mm 4 mps 743 mmHg 62%
    23:00 0°C° 0 mm 4 mps 743 mmHg 62%

    26 April, Friday

    Time Temperature Precipitation Wind Pressure Humidity
    00:00 +1°C° 0 mm 3 mps 743 mmHg 63%
    01:00 0°C° 0 mm 3 mps 744 mmHg 63%
    02:00 0°C° 0 mm 3 mps 744 mmHg 65%
    03:00 -1°C° 0 mm 2 mps 744 mmHg 67%
    04:00 -1°C° 0 mm 2 mps 744 mmHg 69%
    05:00 +1°C° 0 mm 2 mps 744 mmHg 62%
    06:00 +3°C° 0 mm 1 mps 744 mmHg 55%
    07:00 +4°C° 0 mm 1 mps 745 mmHg 48%
    08:00 +5°C° 0 mm 1 mps 744 mmHg 44%
    09:00 +6°C° 0 mm 1 mps 744 mmHg 39%
    10:00 +6°C° 0 mm 2 mps 744 mmHg 35%
    11:00 +7°C° 0 mm 2 mps 744 mmHg 33%
    12:00 +8°C° 0 mm 3 mps 744 mmHg 30%
    13:00 +9°C° 0 mm 3 mps 743 mmHg 28%
    14:00 +8°C° 0.6 mm 3 mps 743 mmHg 40%
    15:00 +7°C° 0.6 mm 4 mps 743 mmHg 51%
    16:00 +6°C° 0.6 mm 4 mps 742 mmHg 63%
    17:00 +7°C° 0.1 mm 3 mps 743 mmHg 62%
    18:00 +7°C° 0.1 mm 3 mps 743 mmHg 60%
    19:00 +6°C° 0.1 mm 2 mps 743 mmHg 59%
    20:00 +4°C° 0.1 mm 4 mps 744 mmHg 64%
    21:00 +2°C° 0.1 mm 5 mps 744 mmHg 69%
    22:00 0°C° 0.1 mm 7 mps 745 mmHg 74%
    23:00 -1°C° 0 mm 6 mps 745 mmHg 69%

    27 April, Saturday

    Time Temperature Precipitation Wind Pressure Humidity
    00:00 -2°C° 0 mm 6 mps 745 mmHg 63%
    01:00 -2°C° 0 mm 5 mps 746 mmHg 58%
    02:00 -2°C° 0 mm 4 mps 746 mmHg 58%
    03:00 -2°C° 0 mm 3 mps 747 mmHg 59%
    04:00 -3°C° 0 mm 2 mps 748 mmHg 59%
    05:00 -2°C° 0 mm 3 mps 748 mmHg 54%
    06:00 -1°C° 0 mm 3 mps 749 mmHg 48%
    07:00 0°C° 0 mm 3 mps 749 mmHg 42%
    08:00 +1°C° 0 mm 3 mps 749 mmHg 39%
    09:00 +1°C° 0 mm 3 mps 749 mmHg 36%
    10:00 +2°C° 0 mm 3 mps 749 mmHg 33%
    11:00 +3°C° 0 mm 4 mps 749 mmHg 32%
    12:00 +4°C° 0 mm 4 mps 749 mmHg 30%
    13:00 +6°C° 0 mm 4 mps 749 mmHg 28%
    14:00 +6°C° 0 mm 5 mps 748 mmHg 29%
    15:00 +7°C° 0 mm 5 mps 748 mmHg 30%
    16:00 +7°C° 0 mm 6 mps 748 mmHg 31%
    17:00 +7°C° 0 mm 5 mps 747 mmHg 33%
    18:00 +6°C° 0 mm 5 mps 747 mmHg 36%
    19:00 +6°C° 0 mm 5 mps 746 mmHg 39%
    20:00 +6°C° 0 mm 5 mps 746 mmHg 41%
    21:00 +5°C° 0 mm 6 mps 746 mmHg 42%
    22:00 +5°C° 0 mm 7 mps 745 mmHg 43%
    23:00 +5°C° 0 mm 7 mps 745 mmHg 43%

    28 April, Sunday

    Time Temperature Precipitation Wind Pressure Humidity
    00:00 +5°C° 0 mm 8 mps 744 mmHg 42%
    01:00 +5°C° 0 mm 8 mps 744 mmHg 41%
    02:00 +5°C° 0 mm 8 mps 743 mmHg 44%
    03:00 +5°C° 0 mm 8 mps 743 mmHg 47%
    04:00 +5°C° 0 mm 9 mps 742 mmHg 50%
    05:00 +6°C° 0 mm 9 mps 742 mmHg 53%
    06:00 +7°C° 0 mm 9 mps 741 mmHg 55%
    07:00 +9°C° 0 mm 10 mps 741 mmHg 57%
    08:00 +9°C° 0.2 mm 10 mps 741 mmHg 56%
    09:00 +9°C° 0.2 mm 11 mps 740 mmHg 56%
    10:00 +9°C° 0.2 mm 12 mps 740 mmHg 55%
    11:00 +10°C° 0 mm 12 mps 739 mmHg 53%
    12:00 +12°C° 0 mm 11 mps 738 mmHg 51%
    13:00 +14°C° 0 mm 11 mps 738 mmHg 49%
    14:00 +14°C° 0 mm 10 mps 737 mmHg 48%
    15:00 +16°C° 0 mm 10 mps 737 mmHg 48%
    16:00 +16°C° 0 mm 9 mps 736 mmHg 47%
    17:00 +15°C° 0.2 mm 8 mps 736 mmHg 56%
    18:00 +14°C° 0.2 mm 7 mps 736 mmHg 64%
    19:00 +12°C° 0.2 mm 7 mps 736 mmHg 72%
    20:00 +9°C° 0.2 mm 6 mps 737 mmHg 74%
    21:00 +7°C° 0.2 mm 6 mps 737 mmHg 75%
    22:00 +5°C° 0.2 mm 5 mps 737 mmHg 76%
    23:00 +3°C° 0.2 mm 5 mps 738 mmHg 73%
    Show more